AirNav   Everest Fuels
 
 1427 users online  

CT03 Bristol Hospital Heliport
Bristol, Connecticut, USA

GOING TO BRISTOL?


FAA INFORMATION EFFECTIVE 18 JUNE 2020

Location

FAA Identifier: CT03
Lat/Long: 41-40-34.6200N 072-56-10.4300W
41-40.577000N 072-56.173833W
41.6762833,-72.9362306
(estimated)
Elevation: 406 ft. / 124 m (estimated)
Variation: 14W (1995)
Time zone: UTC -4 (UTC -5 during Standard Time)
Zip code: 06010

Heliport Operations

Heliport use: Private use, MEDICAL USE.
Activation date: 02/2000
Control tower: no
ARTCC: BOSTON CENTER
FSS: BRIDGEPORT FLIGHT SERVICE STATION
Attendance: CONTINUOUS
Wind indicator: lighted
Segmented circle: no
Lights: FOR HELIPORT LGTS TURNED ON BY HOSPITAL 10 MINS PRIOR TO ETA: LIGHTED WINDCONE, YELLOW PERIMETER LGTS & FLOOD LGTS CALL 860-585-3000.

Heliport Communications

WX AWOS-AV at CT71 (6 nm E): 129.825
WX ASOS at MMK (11 nm SE): 134.925 (203-639-9405)
WX ASOS at HFD (13 nm E): PHONE 860-527-5837
WX AWOS-3PT at OXC (15 nm SW): 132.975 (203-262-1190)
WX ASOS at BDL (19 nm NE): PHONE 860-386-3480

Nearby radio navigation aids

VOR radial/distance  VOR name  Freq  Var
HFDr290/17.6HARTFORD VOR/DME114.9013W
MADr346/24.4MADISON VOR/DME110.4013W
PWLr113/30.3PAWLING VOR/DME114.3012W
BAFr213/30.8BARNES VORTAC113.0014W
BDRr027/32.1BRIDGEPORT VOR/DME108.8012W
CTRr192/36.9CHESTER VOR/DME115.1013W
CMKr063/37.5CARMEL VOR/DME116.6012W
IGNr101/39.7KINGSTON VOR/DME117.6012W

 
NDB name  Hdg/Dist  Freq  Var  ID
GREAT BARRINGTON160/36.939514WGBR --. -... .-.

Heliport Services

Runway Information

Helipad H1

Dimensions: 45 x 45 ft. / 14 x 14 m
HELIPORT IS CENTERED WITHIN 80 FT DIAMETER OBSTN FREE FATO, SURROUNDED BY 15 FT WIDE SAFETY AREA.
Surface: DECK
HELIPORT CAN SUPPORT UP TO 18,000 LBS MGW HELICOPTERS.
Runway edge lights: PERI
& FLOOD LGTS.
Runway edge markings: WHITE BORDERLINE, WHITE HOSPITAL CROSS, RED HOSPITAL 'H' IN CENTER OF CROSS, RED NUMBER '18' DENOTING 18,000 MGM HELICOPTERS.
Operational restrictions: HELIPORT IS ELEVATED ABOVE STREET, WEST SIDE OF HOSPITAL, NEXT TO EMERGENCY ROOM ENTRANCE.
Latitude: 41-40.577000N
Longitude: 072-56.173833W
Traffic pattern: leftleft
Markings: NSTD

Heliport Ownership and Management from official FAA records

Ownership: Privately-owned
Owner: BRISTOL HOSPITAL
BREWSTER ROAD
BRISTOL, CT 06010
Phone 860-585-3000
Manager: TODD STURGEON
BREWSTER ROAD
BRISTOL, CT 06010
Phone (860) 585-3404

Additional Remarks

HOSPITAL EMS FLIGHTS ONLY; CALL 860-585-3000.
APCH FM SOUTH OR WEST ONLY. DEP TO SOUTH & WEST ONLY.
FOR CD CTC YANKEE APCH AT 860-386-3597

Instrument Procedures

There are no published instrument procedures at CT03.

Some nearby airports with instrument procedures:

4B8 - Robertson Field Airport (3 nm E)
KMMK - Meriden Markham Municipal Airport (11 nm SE)
KHFD - Hartford-Brainard Airport (13 nm E)
KOXC - Waterbury-Oxford Airport (15 nm SW)
KBDL - Bradley International Airport (19 nm NE)
 
Loc | Ops | Rwys | IFR | FBO | Links
Com | Nav | Svcs | Stats | Notes

Silver City Flying Club
 
Area around CT03 (Bristol Hospital Heliport)
 
Road maps at: MapQuest Bing Google
 
Aerial photo
No photo
 
Sectional chart

 
Airport distance calculator
Flying to Bristol Hospital Heliport? Find the distance to fly.

From to CT03

Sunrise and sunset
Times for 14-Jul-2020
 Local
(UTC-4)
 Zulu
(UTC)
Morning civil twilight04:5808:58
Sunrise05:3109:31
Sunset20:2400:24
Evening civil twilight20:5700:57

Current date and time
Zulu (UTC)  14-Jul-2020 20:53:07
Local (UTC-4)  14-Jul-2020 16:53:07
 
METAR
KMMK 
11nm SE 
141953Z AUTO 04007KT 330V070 10SM FEW075 SCT120 29/17 A2993 RMK AO2 SLP135 T02890167
KHFD 
13nm E 
141953Z 01009KT 10SM CLR 28/17 A2993 RMK AO2 SLP136 T02830172
KOXC 
15nm SW 
141951Z 36005KT 10SM SCT050 27/16 A2997 RMK AO2 SLP155 T02670161
KBDL 
19nm NE 
141951Z 01010KT 10SM SCT055 SCT120 SCT220 BKN250 27/15 A2994 RMK AO2 SLP137 TCU DSNT ALQDS T02670150
TAF
KBDL 
19nm NE 
142013Z 1420/1524 35010KT P6SM SCT050 BKN250 TEMPO 1422/1423 5SM TSRA BR BKN045CB OVC070 FM150000 36005KT P6SM SCT070 FM150500 02004KT P6SM BKN030 FM151800 04004KT P6SM SCT040
NOTAMs
Click for the latest NOTAMs
NOTAMs are issued by the DoD/FAA and will open in a separate window not controlled by AirNav.

 

 
 

Would you like to see your business listed on this page?

 If your business provides an interesting product or service to pilots, flight crews, aircraft, or users of the Bristol Hospital Heliport, you should consider listing it here.  To start the listing process, click on the button below
 
Add a business
 

Other Pages about Bristol Hospital Heliport

Update a link
 
Copyright © AirNav, LLC. All rights reserved. Privacy Policy  Contact